Volver al catálogo

SL-14 R/B

ActivoPO
NORAD 19791·ROCKET BODY·🇷🇺 Russia

Lanzado Feb 10, 1989 desde Plesetsk Cosmodrome

Loading…

Próximos Pases (próximas 24 horas)

TLE

ActualizadoSource: Space-Track

Época: Sep 14, 2026, 00:22 UTC

1 19791U 89009G   26257.01538251 -.00000010  00000-0 -12947-3 0  9999
2 19791  82.6083  76.5004 0035643 101.9318  71.9346 12.54882445721690

Sigue SL-14 R/B en tiempo real con AllMySat

Download on the App Store